Theta_e
315 315 316 315 315 316 317 316 317 317 316 317 316 315 313 316 318 318 318 318 316 309 313 325 324 324 324 322 319 317 317 317 316 316 316 316 316 315 314 314 315 315 313 314
315 316 318 318 317 317 317 317 317 315 315 315 314 315 317 317 318 318 318 317 318 320 321 322 324 324 323 323 322 321 319 319 318 318 318 318 317 316 315 315 315 314 314 314
318 318 319 319 317 318 317 317 317 316 316 314 314 314 316 317 317 319 317 316 318 318 318 319 319 320 322 323 323 323 321 321 320 320 319 319 319 318 317 316 314 314 314 317
320 318 318 316 317 316 317 315 316 317 316 316 313 314 316 317 316 318 318 316 315 317 319 319 319 320 321 321 323 323 322 322 321 321 320 320 319 318 318 317 316 314 315 316
320 317 317 317 319 317 317 316 316 317 314 313 314 315 314 315 316 316 318 318 316 315 315 318 319 320 322 322 322 322 322 322 323 321 320 320 320 319 318 317 316 314 314 316
318 317 316 318 318 317 315 314 311 310 311 314 316 316 313 317 318 317 317 319 318 316 315 316 317 319 320 319 318 319 319 318 317 317 317 316 317 320 320 317 315 314 314 314
318 319 318 316 317 314 311 310 311 314 313 313 312 315 313 316 317 317 318 318 318 317 316 315 316 316 317 318 318 317 317 317 317 317 315 316 316 320 321 318 315 315 315 315
320 321 317 314 316 317 314 311 313 319 316 315 313 317 317 316 314 315 315 316 314 315 315 315 315 315 315 315 314 315 315 315 315 315 315 316 315 317 318 319 315 316 316 315
319 320 316 315 316 314 315 315 312 313 313 316 314 317 316 315 314 313 314 314 313 312 312 311 314 314 313 312 311 312 314 314 314 314 314 314 316 318 318 316 315 316 314 313
316 316 315 318 314 313 314 313 314 312 319 322 318 319 318 316 314 312 311 313 310 309 309 310 311 311 311 310 310 310 311 311 312 312 312 313 314 315 316 316 314 312 310 310
314 313 313 315 315 316 314 314 312 312 314 318 320 317 316 315 312 312 311 310 308 307 306 307 309 310 310 310 309 308 309 310 310 310 310 310 310 310 310 310 310 309 308 307
315 313 317 315 314 313 314 317 312 312 315 314 316 317 314 313 313 312 311 309 308 307 306 306 307 308 308 308 308 308 307 308 308 308 309 309 308 308 308 307 307 306 305 305
311 308 307 310 309 312 317 317 314 310 309 314 313 316 313 313 312 311 310 309 307 307 307 306 306 306 306 307 307 306 307 307 306 306 308 308 307 307 307 306 306 305 305 305
312 309 311 312 312 314 318 316 315 313 306 314 315 316 314 313 312 311 310 308 307 308 307 308 306 304 306 307 306 306 305 304 305 306 306 306 307 306 305 305 305 304 304 305
311 314 312 313 314 317 317 317 317 317 316 316 314 316 315 313 311 311 309 308 310 310 310 309 306 307 307 305 304 303 303 304 305 305 305 305 305 304 303 304 305 304 305 305
310 311 316 318 317 318 318 317 317 317 317 316 316 316 313 311 309 310 311 311 311 310 309 308 308 306 304 303 302 302 301 301 302 304 304 303 303 303 303 304 303 304 305 304
310 312 314 318 317 316 315 317 317 317 316 315 314 311 311 311 311 311 311 310 309 309 308 308 305 304 303 302 301 300 300 301 301 302 302 303 303 304 304 303 304 304 304 303
311 314 314 318 314 318 313 315 315 318 315 313 313 311 310 310 310 310 309 309 308 308 306 304 303 302 301 301 301 301 301 301 301 301 302 302 302 303 303 304 304 303 302 302
309 314 315 314 314 314 318 315 312 310 313 312 312 310 311 310 308 309 306 306 307 305 303 302 301 300 300 301 301 301 301 301 301 301 302 302 302 302 303 302 302 303 302 302
309 310 310 310 314 314 311 314 313 310 308 311 310 310 310 308 312 309 308 307 304 302 302 301 300 300 301 301 301 301 301 301 301 301 301 301 302 302 302 302 302 302 302 302
309 308 310 309 310 311 313 312 312 315 310 307 308 308 308 308 308 308 306 304 302 301 301 300 300 301 301 301 301 301 301 301 300 301 301 301 301 302 302 302 302 302 303 303
309 306 306 307 311 312 312 312 309 307 307 307 307 307 307 307 306 305 303 302 300 301 301 300 301 301 301 301 301 301 301 301 301 300 301 301 301 301 302 302 302 302 302 304
309 307 306 307 308 307 310 310 308 306 307 306 307 308 305 304 304 303 301 300 300 301 300 300 301 301 301 301 301 301 301 301 301 301 301 301 301 302 302 303 303 304 305 306
308 307 310 311 310 310 310 308 307 308 306 306 307 304 303 302 302 301 301 300 300 301 300 301 301 301 301 301 302 302 303 302 301 301 301 302 302 303 304 305 306 305 307 308
307 309 310 310 309 308 308 307 307 307 306 305 304 303 301 300 300 300 301 300 301 301 301 301 301 301 301 302 303 305 306 304 302 302 302 302 303 304 304 303 307 308 309 308
307 310 308 309 307 307 307 306 306 307 307 305 303 301 301 299 299 300 301 301 301 301 301 300 301 301 302 303 306 307 306 306 304 303 303 303 304 305 304 305 304 307 307 307
Wind_Speed
5 8 5 10 4 2 3 3 1 2 0 1 4 3 9 7 13 15 14 15 12 9 5 8 8 6 5 8 16 18 17 13 11 11 10 10 12 11 11 12 14 16 18 17
7 4 3 7 2 4 4 3 3 4 4 2 4 5 5 7 6 10 14 14 14 12 12 15 16 9 6 2 7 8 8 9 6 7 7 8 8 6 8 12 13 17 18 16
3 3 4 2 2 4 2 3 3 5 4 3 4 3 3 3 5 9 12 10 13 14 11 12 18 16 9 4 2 2 2 2 2 1 3 8 6 6 7 11 12 16 18 17
1 7 7 8 6 1 2 4 2 2 3 1 4 4 2 1 6 8 9 10 10 10 14 12 16 18 13 8 1 1 3 4 5 7 12 12 12 14 14 11 10 12 13 14
2 6 6 10 3 3 3 3 4 1 4 3 5 3 4 4 5 7 7 7 8 8 7 7 11 23 18 13 8 5 4 5 7 12 17 17 21 20 17 15 13 15 13 11
4 3 5 1 2 3 5 3 6 5 3 3 3 4 4 1 2 3 3 4 4 6 6 5 4 6 7 15 14 11 7 15 21 24 27 24 27 27 23 18 15 13 14 13
5 2 3 5 6 6 9 6 4 5 5 4 4 2 6 5 2 2 2 4 4 4 3 4 4 5 6 8 8 12 16 17 19 24 25 29 29 28 27 22 18 13 12 11
3 6 5 6 2 4 4 5 4 3 2 6 7 5 1 3 6 5 4 3 5 5 4 6 10 12 16 19 22 24 23 24 24 26 30 30 30 27 27 22 18 15 11 8
3 5 3 7 4 3 5 4 2 2 2 2 4 3 4 2 4 6 6 7 8 7 7 8 14 15 17 15 19 20 19 22 24 26 27 30 25 23 19 19 15 11 8 9
5 2 3 4 3 6 6 2 5 4 3 4 5 5 3 6 10 7 7 5 7 8 9 8 15 19 20 20 18 18 17 16 16 13 13 15 13 11 12 10 7 9 11 15
3 3 6 4 4 2 5 4 4 2 4 3 4 5 2 1 3 6 7 8 8 8 8 7 14 21 22 21 20 21 23 21 17 18 18 18 16 14 14 15 16 18 20 24
2 4 2 5 3 5 5 1 3 4 6 4 2 7 3 3 2 4 7 8 9 8 8 9 19 21 24 20 22 29 33 29 30 36 29 26 26 27 26 26 24 23 28 29
5 1 3 7 6 3 4 3 3 3 3 5 3 5 5 1 5 6 8 9 9 8 13 11 17 17 20 22 29 34 33 31 37 39 32 29 32 30 27 24 25 27 29 28
7 3 6 6 7 3 4 4 4 4 3 3 5 8 9 8 8 10 12 10 10 12 13 13 12 15 21 27 29 28 27 36 36 36 31 30 28 28 29 34 33 31 30 28
4 4 4 5 6 3 6 6 4 6 5 4 5 8 10 6 10 12 10 10 16 17 16 14 11 15 27 28 29 32 32 29 30 29 29 28 30 30 34 33 32 30 27 26
2 2 3 3 5 5 6 5 5 3 2 5 7 12 1 6 8 11 14 16 18 18 18 16 17 26 29 28 28 28 29 33 32 28 28 31 30 31 32 31 33 31 27 25
2 4 2 4 3 5 6 4 3 2 3 5 5 5 5 15 14 13 16 18 18 17 20 21 21 26 27 26 29 29 31 33 30 30 29 27 26 27 24 27 28 28 26 24
4 4 2 3 4 1 3 2 1 4 9 8 3 7 9 11 15 12 14 16 16 19 21 18 25 27 29 32 30 30 29 24 29 28 27 29 27 24 24 22 18 19 24 27
4 4 1 1 2 5 1 1 2 2 13 6 4 9 13 13 8 14 9 5 15 18 20 27 28 32 34 32 31 28 29 28 26 26 25 25 24 22 20 17 21 19 20 24
6 5 4 2 1 4 3 4 4 3 5 6 5 9 13 10 14 17 18 18 17 25 26 28 30 32 30 33 31 27 28 27 25 24 24 24 23 23 18 19 20 22 23 25
3 2 2 2 4 6 3 5 3 2 7 4 4 11 11 7 8 18 18 18 26 26 29 29 31 28 30 32 30 26 27 25 25 24 23 22 21 20 20 20 21 21 20 23
4 3 3 1 2 6 4 2 4 7 5 6 7 9 8 12 14 17 18 17 23 26 28 30 28 29 31 32 26 25 25 27 22 21 19 19 18 16 15 16 20 20 20 18
1 6 4 7 6 5 5 7 8 4 6 7 5 9 6 10 16 19 17 21 21 26 27 30 28 29 30 31 26 22 28 23 19 18 16 17 17 16 15 17 19 18 16 17
3 4 3 2 4 7 6 6 5 4 7 8 6 7 7 11 17 16 16 16 20 26 27 29 26 27 28 31 30 28 26 22 16 14 14 14 13 15 18 14 14 15 11 5
5 4 3 4 7 6 7 8 5 8 7 7 7 7 9 10 15 13 16 17 23 26 28 27 26 25 28 31 29 30 20 10 11 10 11 10 11 14 4 10 8 4 3 1
5 6 4 6 8 5 7 7 5 7 6 7 7 8 10 9 13 19 15 24 25 26 28 26 27 26 28 30 26 21 12 8 8 7 6 8 12 4 7 8 12 13 10 9
Wind_Direction
8 64 10 305 249 186 107 91 104 253 301 147 43 295 15 14 30 19 13 358 339 282 294 94 53 57 133 131 143 150 155 152 148 136 120 86 63 46 29 11 5 8 13 15
20 84 346 324 59 121 72 93 343 298 323 96 7 57 97 17 17 29 26 21 17 35 48 65 82 64 37 125 144 145 151 153 153 124 105 80 53 25 1 7 12 10 9 13
125 275 339 62 349 26 95 116 230 225 328 3 44 31 36 17 28 32 27 40 51 47 49 39 47 50 45 41 205 213 184 149 140 90 66 53 358 335 331 353 3 7 2 5
29 331 4 48 59 20 38 328 270 248 73 293 42 265 298 332 4 38 21 26 17 48 87 75 67 63 63 64 235 337 1 333 306 335 343 358 330 314 313 322 335 348 358 355
349 28 36 49 334 9 258 1 334 15 97 89 348 76 249 2 10 6 24 21 21 27 17 27 117 111 92 71 53 36 9 345 334 339 332 324 307 295 293 301 313 322 337 347
155 181 55 280 356 25 304 341 39 49 72 46 274 102 290 306 359 348 49 58 32 14 16 26 40 355 131 140 147 171 213 279 288 292 301 306 293 280 279 281 287 302 316 328
347 18 353 26 21 350 37 46 355 6 9 224 263 335 248 356 47 13 101 55 47 2 328 286 303 339 329 328 302 288 285 271 287 280 278 276 283 277 266 267 276 282 293 312
73 327 26 335 66 254 14 98 134 295 230 252 316 251 92 78 27 357 25 37 30 8 320 327 329 339 343 341 333 320 314 317 314 299 292 295 292 277 279 260 268 273 279 286
100 289 346 39 349 64 325 26 222 148 342 39 271 102 275 4 13 7 338 19 359 349 351 342 330 330 336 333 350 345 327 312 306 298 297 293 288 279 268 268 267 256 255 282
202 296 18 314 59 19 90 270 22 11 353 306 292 290 257 346 356 344 6 19 349 348 347 341 331 328 324 327 336 345 339 325 321 318 319 316 299 278 268 259 251 265 284 294
93 111 297 15 50 326 4 20 39 112 151 224 297 257 203 274 358 347 343 335 323 311 302 295 298 303 308 312 322 327 322 306 296 295 294 292 295 298 290 285 286 290 292 296
64 129 240 259 251 254 136 230 116 114 279 238 221 276 154 143 4 325 309 302 294 286 292 289 300 296 305 296 312 317 311 298 303 295 287 285 286 286 283 285 288 290 296 296
178 16 9 353 355 339 59 274 203 144 73 222 165 262 178 272 315 293 293 292 285 286 296 292 297 290 297 305 308 299 295 294 296 283 276 279 282 283 281 283 287 288 287 281
89 134 159 193 222 164 278 256 277 164 136 237 240 287 299 317 316 317 311 291 292 298 292 298 289 276 290 297 302 297 295 297 285 278 283 283 274 278 286 289 287 286 284 279
98 199 203 245 253 245 250 270 220 223 213 191 264 263 284 303 307 303 295 286 304 306 297 286 276 289 305 311 310 306 299 300 297 288 286 283 288 288 290 286 284 285 279 280
20 251 171 277 265 278 282 230 232 233 212 268 266 285 37 295 286 299 307 303 304 296 298 295 298 312 311 308 307 301 304 297 294 289 284 285 280 279 279 280 284 282 277 278
143 129 88 262 337 327 301 211 204 279 268 248 275 271 302 314 310 306 304 300 293 297 306 310 313 309 307 308 305 300 295 294 290 284 281 278 280 275 269 279 274 273 272 277
140 117 138 263 357 242 245 61 320 258 270 280 292 292 284 277 293 303 288 284 298 310 311 312 313 311 308 303 299 300 298 298 294 290 287 286 282 279 281 277 264 275 281 282
141 120 325 166 208 285 215 290 291 145 293 204 244 301 309 301 295 297 275 271 302 312 312 309 309 305 303 302 302 297 294 293 290 287 286 285 285 283 279 277 280 277 283 280
79 74 117 91 263 268 221 281 286 114 292 215 243 298 301 322 317 313 327 321 313 312 304 308 306 302 300 300 301 295 291 292 288 289 288 286 283 278 270 278 272 278 280 284
7 15 188 187 244 283 235 268 277 38 275 270 276 294 290 285 270 298 309 309 313 307 311 310 306 301 300 299 299 292 289 285 287 288 287 288 288 283 282 277 276 278 278 284
174 153 218 60 269 294 203 283 130 225 286 271 289 271 273 290 298 301 306 310 309 311 313 310 306 303 303 302 299 290 286 289 289 286 285 287 288 282 283 281 280 279 281 279
265 180 194 174 221 233 230 217 249 209 254 270 253 285 285 297 304 309 310 313 312 314 311 310 307 306 308 307 303 290 287 291 288 285 285 289 296 295 294 283 280 279 281 269
273 156 196 73 260 239 251 279 246 221 239 266 278 285 291 297 308 310 310 310 316 315 313 312 313 311 309 311 308 300 293 291 285 279 285 297 300 312 314 299 276 256 255 204
208 138 202 260 283 293 282 260 262 277 267 291 291 277 286 297 309 308 310 317 315 313 316 318 313 311 309 311 311 310 313 297 282 277 287 299 310 324 34 55 64 72 84 143
183 193 160 235 243 198 250 268 273 266 277 275 273 299 295 305 306 313 311 316 313 314 318 315 317 316 315 317 317 332 336 311 276 265 294 314 326 66 70 70 79 75 70 79